CW3827 Weather Reports


Display with metric or nautical units.
time (UTC)temp
F
wind
direction
speed
MPH
gust
MPH
rain 1hr
in
rain 24hr
in
rain mn
in
humidity
%
barometer
mb
20200329065036 34 6 9.0 11.0 0.00 0.00 0.00 44 1019.8
20200329064543 34 6 8.0 8.0 0.00 0.00 0.00 44 1019.8
20200329064030 34 6 6.0 8.0 0.00 0.00 0.00 44 1019.8
20200329063538 34 6 8.0 8.0 0.00 0.00 0.00 43 1019.8
20200329062538 34 6 5.0 8.0 0.00 0.00 0.00 43 1019.9
20200329062045 34 6 7.0 8.0 0.00 0.00 0.00 43 1019.8
20200329061532 34 6 6.0 8.0 0.00 0.00 0.00 44 1020.0
20200329061106 34 6 6.0 7.0 0.00 0.00 0.00 43 1019.9
20200329060527 34 6 7.0 8.0 0.00 0.00 0.00 42 1019.8
20200329055534 36 6 6.0 8.0 0.00 0.00 0.00 38 1019.7
20200329055041 36 6 6.0 8.0 0.00 0.00 0.00 38 1019.7
20200329054529 37 6 5.0 6.0 0.00 0.00 0.00 37 1019.6
20200329054036 37 6 6.0 7.0 0.00 0.00 0.00 36 1019.6
20200329053543 38 6 6.0 8.0 0.00 0.00 0.00 34 1019.6
20200329053113 39 6 6.0 8.0 0.00 0.00 0.00 35 1019.6
20200329052534 39 6 6.0 7.0 0.00 0.00 0.00 35 1019.6
20200329052026 37 6 5.0 6.0 0.00 0.00 0.00 36 1019.6
20200329051532 37 6 4.0 7.0 0.00 0.00 0.00 37 1019.4
20200329051039 37 6 5.0 7.0 0.00 0.00 0.00 36 1019.5
20200329050545 38 6 7.0 7.0 0.00 0.00 0.00 36 1019.6
20200329050034 37 6 6.0 7.0 0.00 0.00 0.00 37 1019.4
20200329045541 37 6 6.0 7.0 0.00 0.00 0.00 36 1019.4
20200329045029 37 6 7.0 8.0 0.00 0.00 0.00 37 1019.3
20200329044537 36 6 6.0 9.0 0.00 0.00 0.00 38 1019.3
20200329044045 37 6 8.0 10.0 0.00 0.00 0.00 37 1019.3
20200329043536 37 6 6.0 10.0 0.00 0.00 0.00 36 1019.3
20200329043045 38 6 5.0 6.0 0.00 0.00 0.00 35 1019.3
20200329042531 38 6 4.0 8.0 0.00 0.00 0.00 34 1019.3
20200329042038 39 6 3.0 8.0 0.00 0.00 0.00 33 1019.4
20200329041545 39 6 3.0 8.0 0.00 0.00 0.00 33 1019.4
20200329041033 40 6 5.0 12.0 0.00 0.00 0.00 32 1019.1
20200329040540 41 6 7.0 13.0 0.00 0.00 0.00 31 1019.1
20200329040028 42 6 4.0 8.0 0.00 0.00 0.00 31 1019.0
20200329035536 43 6 4.0 10.0 0.00 0.00 0.00 30 1019.0
20200329035027 43 6 8.0 11.0 0.00 0.00 0.00 30 1019.0
20200329034534 42 6 9.0 11.0 0.00 0.00 0.00 31 1019.0
20200329034041 41 6 8.0 10.0 0.00 0.00 0.00 32 1018.9
20200329033528 40 6 5.0 10.0 0.00 0.00 0.00 33 1018.8
20200329033036 41 6 6.0 10.0 0.00 0.00 0.00 33 1018.7
20200329032542 40 6 4.0 6.0 0.00 0.00 0.00 33 1018.6
20200329032029 40 6 5.0 9.0 0.00 0.00 0.00 33 1018.5
20200329031536 41 6 8.0 10.0 0.00 0.00 0.00 33 1018.5
20200329031044 41 6 9.0 10.0 0.00 0.00 0.00 33 1018.4
20200329030532 41 6 8.0 9.0 0.00 0.00 0.00 33 1018.3
20200329030046 41 6 8.0 9.0 0.00 0.00 0.00 32 1018.1
20200329025532 41 6 8.0 10.0 0.00 0.00 0.00 32 1018.1
20200329025037 41 6 9.0 11.0 0.00 0.00 0.00 32 1018.0
20200329024545 42 6 9.0 11.0 0.00 0.00 0.00 31 1017.9
20200329024032 42 6 9.0 11.0 0.00 0.00 0.00 31 1017.9
20200329023539 41 6 9.0 11.0 0.00 0.00 0.00 32 1017.8
20200329023028 41 6 8.0 10.0 0.00 0.00 0.00 31 1017.7
20200329022534 42 6 8.0 10.0 0.00 0.00 0.00 31 1017.6
20200329022041 42 6 9.0 10.0 0.00 0.00 0.00 31 1017.6
20200329021531 42 6 8.0 10.0 0.00 0.00 0.00 31 1017.5
20200329021038 42 6 7.0 9.0 0.00 0.00 0.00 30 1017.4
20200329020526 42 6 8.0 9.0 0.00 0.00 0.00 31 1017.4
20200329020036 41 6 7.0 8.0 0.00 0.00 0.00 32 1017.3
20200329015542 41 6 6.0 8.0 0.00 0.00 0.00 32 1017.3
20200329015030 41 6 4.0 6.0 0.00 0.00 0.00 32 1017.2
20200329014537 41 6 5.0 6.0 0.00 0.00 0.00 32 1017.2
20200329014044 42 6 5.0 7.0 0.00 0.00 0.00 31 1017.1
20200329013532 43 6 6.0 7.0 0.00 0.00 0.00 30 1017.2
20200329013041 43 6 6.0 8.0 0.00 0.00 0.00 29 1017.2
20200329012530 45 6 7.0 10.0 0.00 0.00 0.00 27 1017.3
20200329012039 45 6 8.0 10.0 0.00 0.00 0.00 26 1017.2
20200329011526 46 6 8.0 13.0 0.00 0.00 0.00 26 1017.2
20200329011032 47 6 11.0 13.0 0.00 0.00 0.00 25 1017.2
20200329010540 47 6 8.0 13.0 0.00 0.00 0.00 25 1017.2
20200329010029 48 6 10.0 14.0 0.00 0.00 0.00 24 1017.2
20200329005534 49 6 10.0 15.0 0.00 0.00 0.00 24 1017.2
20200329005041 49 6 12.0 16.0 0.00 0.00 0.00 23 1017.2
20200329004530 49 6 13.0 18.0 0.00 0.00 0.00 23 1017.2
20200329004038 49 6 14.0 19.0 0.00 0.00 0.00 23 1017.1
20200329003526 50 6 15.0 22.0 0.00 0.00 0.00 22 1017.1
20200329003034 50 6 17.0 22.0 0.00 0.00 0.00 22 1017.0
20200329002542 50 6 18.0 21.0 0.00 0.00 0.00 21 1017.0
20200329002029 50 6 16.0 23.0 0.00 0.00 0.00 21 1017.0
20200329001536 50 6 18.0 23.0 0.00 0.00 0.00 21 1017.2
20200329001044 50 6 15.0 20.0 0.00 0.00 0.00 22 1017.2
20200329000529 51 6 18.0 24.0 0.00 0.00 0.00 21 1017.0
20200329000040 51 6 19.0 24.0 0.00 0.00 0.00 21 1017.0
20200328235529 51 6 17.0 25.0 0.00 0.00 0.00 21 1016.9
20200328235038 51 6 18.0 24.0 0.00 0.00 0.00 20 1016.8
20200328234544 51 6 19.0 23.0 0.00 0.00 0.00 20 1016.8
20200328234032 51 6 19.0 23.0 0.00 0.00 0.00 19 1016.8
20200328233540 51 6 14.0 23.0 0.00 0.00 0.00 20 1016.8
20200328233030 51 6 19.0 23.0 0.00 0.00 0.00 19 1016.8
20200328232535 51 6 16.0 22.0 0.00 0.00 0.00 20 1016.8
20200328232043 51 6 19.0 22.0 0.00 0.00 0.00 19 1016.8
20200328231531 51 6 15.0 21.0 0.00 0.00 0.00 19 1016.8
20200328231039 51 6 18.0 21.0 0.00 0.00 0.00 19 1016.8
20200328230529 52 6 16.0 27.0 0.00 0.00 0.00 18 1016.7
20200328230102 51 6 15.0 27.0 0.00 0.00 0.00 19 1016.8
20200328225543 52 6 20.0 24.0 0.00 0.00 0.00 19 1016.8
20200328225030 52 6 16.0 22.0 0.00 0.00 0.00 18 1016.8
20200328224537 51 6 14.0 26.0 0.00 0.00 0.00 19 1016.8
20200328224044 51 6 20.0 26.0 0.00 0.00 0.00 19 1016.9
20200328223532 51 6 13.0 24.0 0.00 0.00 0.00 20 1016.9
20200328223042 51 6 14.0 25.0 0.00 0.00 0.00 18 1016.8
20200328222529 51 6 17.0 24.0 0.00 0.00 0.00 19 1016.9
20200328222041 51 6 14.0 25.0 0.00 0.00 0.00 18 1016.8
20200328221527 51 6 18.0 25.0 0.00 0.00 0.00 19 1016.8
20200328221034 52 6 18.0 24.0 0.00 0.00 0.00 19 1016.7
20200328220543 51 6 15.0 25.0 0.00 0.00 0.00 19 1016.6
20200328220033 51 6 18.0 24.0 0.00 0.00 0.00 19 1016.8
20200328215540 51 6 17.0 21.0 0.00 0.00 0.00 20 1016.8
20200328215026 51 6 13.0 21.0 0.00 0.00 0.00 19 1016.8
20200328214533 50 6 13.0 25.0 0.00 0.00 0.00 17 1016.7
20200328214042 51 6 17.0 25.0 0.00 0.00 0.00 17 1016.7
20200328213534 51 6 20.0 24.0 0.00 0.00 0.00 19 1016.8
20200328213043 51 6 18.0 21.0 0.00 0.00 0.00 18 1016.8
20200328212528 51 6 17.0 24.0 0.00 0.00 0.00 18 1016.8
20200328212037 51 6 17.0 24.0 0.00 0.00 0.00 19 1016.8
20200328211545 50 6 11.0 20.0 0.00 0.00 0.00 20 1016.7
20200328211031 50 6 15.0 21.0 0.00 0.00 0.00 20 1016.9
20200328210538 50 6 16.0 29.0 0.00 0.00 0.00 19 1017.0
20200328210029 50 6 21.0 29.0 0.00 0.00 0.00 20 1017.1
20200328205536 50 6 18.0 26.0 0.00 0.00 0.00 21 1017.1
20200328205026 50 6 20.0 28.0 0.00 0.00 0.00 20 1017.3
20200328204534 50 6 18.0 25.0 0.00 0.00 0.00 20 1017.1
20200328204041 50 6 16.0 27.0 0.00 0.00 0.00 21 1017.2
20200328203529 49 6 21.0 28.0 0.00 0.00 0.00 21 1017.2
20200328203039 50 6 18.0 28.0 0.00 0.00 0.00 22 1017.2
20200328202544 49 6 19.0 28.0 0.00 0.00 0.00 22 1017.2
20200328202032 49 6 21.0 27.0 0.00 0.00 0.00 21 1017.1
20200328201538 48 6 16.0 23.0 0.00 0.00 0.00 23 1017.1
20200328201027 48 6 13.0 27.0 0.00 0.00 0.00 21 1017.2
20200328200533 49 6 19.0 26.0 0.00 0.00 0.00 22 1017.2
20200328200026 49 6 20.0 26.0 0.00 0.00 0.00 23 1017.3
20200328195532 48 6 12.0 22.0 0.00 0.00 0.00 24 1017.4
20200328195041 48 6 14.0 22.0 0.00 0.00 0.00 24 1017.4
20200328194528 47 6 20.0 22.0 0.00 0.00 0.00 24 1017.3
20200328194034 47 6 11.0 23.0 0.00 0.00 0.00 23 1017.4
20200328193554 48 6 20.0 23.0 0.00 0.00 0.00 24 1017.4
20200328193032 47 6 16.0 19.0 0.00 0.00 0.00 25 1017.4
20200328192537 47 6 12.0 25.0 0.00 0.00 0.00 25 1017.6
20200328192026 47 6 20.0 25.0 0.00 0.00 0.00 25 1017.6
20200328191536 47 6 14.0 24.0 0.00 0.00 0.00 27 1017.5
20200328191043 46 6 14.0 24.0 0.00 0.00 0.00 25 1017.6
20200328190530 46 6 18.0 24.0 0.00 0.00 0.00 26 1017.6
20200328190040 46 6 14.0 24.0 0.00 0.00 0.00 25 1017.6
20200328185528 47 6 12.0 25.0 0.00 0.00 0.00 27 1017.7
20200328185033 46 6 16.0 25.0 0.00 0.00 0.00 28 1017.7
20200328184540 46 6 14.0 22.0 0.00 0.00 0.00 28 1017.6
20200328184027 45 6 16.0 23.0 0.00 0.00 0.00 26 1017.6
20200328183534 44 6 16.0 22.0 0.00 0.00 0.00 26 1017.8
20200328183029 44 6 12.0 22.0 0.00 0.00 0.00 28 1017.7
20200328182534 44 6 15.0 22.0 0.00 0.00 0.00 28 1018.0
20200328182041 43 6 15.0 25.0 0.00 0.00 0.00 27 1018.0
20200328181529 43 6 15.0 24.0 0.00 0.00 0.00 31 1017.7
20200328181036 43 6 19.0 24.0 0.00 0.00 0.00 29 1017.7
20200328180543 44 6 19.0 24.0 0.00 0.00 0.00 31 1017.9
20200328180032 43 6 15.0 21.0 0.00 0.00 0.00 28 1018.0
20200328175539 43 6 16.0 24.0 0.00 0.00 0.00 30 1018.0
20200328175028 42 6 16.0 24.0 0.00 0.00 0.00 32 1018.0
20200328174534 42 6 16.0 24.0 0.00 0.00 0.00 32 1017.9
20200328174025 41 6 16.0 24.0 0.00 0.00 0.00 32 1018.1
20200328173532 42 6 16.0 26.0 0.00 0.00 0.00 32 1018.2
20200328173041 42 6 19.0 28.0 0.00 0.00 0.00 32 1018.0
20200328172527 41 6 16.0 28.0 0.00 0.00 0.00 33 1018.0
20200328172035 41 6 12.0 24.0 0.00 0.00 0.00 33 1018.0
20200328171541 41 6 20.0 24.0 0.00 0.00 0.00 33 1018.2
20200328171028 41 6 17.0 24.0 0.00 0.00 0.00 34 1018.3
20200328170536 40 6 16.0 26.0 0.00 0.00 0.00 33 1018.3
20200328170026 40 6 16.0 25.0 0.00 0.00 0.00 34 1018.3
20200328165537 40 6 16.0 23.0 0.00 0.00 0.00 35 1018.2
20200328165044 40 6 17.0 26.0 0.00 0.00 0.00 35 1018.2
20200328164530 40 6 19.0 27.0 0.00 0.00 0.00 34 1018.0
20200328164038 40 6 23.0 35.0 0.00 0.00 0.00 34 1018.2
20200328163526 40 6 17.0 35.0 0.00 0.00 0.00 36 1018.2
20200328162542 39 6 19.0 27.0 0.00 0.00 0.00 36 1018.0
20200328162028 39 6 21.0 27.0 0.00 0.00 0.00 35 1018.0
20200328161535 39 6 21.0 26.0 0.00 0.00 0.00 38 1018.0
20200328161027 38 6 21.0 30.0 0.00 0.00 0.00 37 1017.9
20200328160536 38 6 24.0 30.0 0.00 0.00 0.00 37 1017.8
20200328160045 38 6 25.0 29.0 0.00 0.00 0.00 38 1017.9
20200328155532 38 6 23.0 30.0 0.00 0.00 0.00 39 1018.1
20200328155038 38 6 23.0 31.0 0.00 0.00 0.00 41 1018.0
20200328154525 38 6 26.0 31.0 0.00 0.00 0.00 39 1018.0
20200328154032 38 6 24.0 29.0 0.00 0.00 0.00 42 1017.7
20200328153539 37 6 24.0 32.0 0.00 0.00 0.00 43 1017.6
20200328153029 37 6 24.0 33.0 0.00 0.00 0.00 42 1017.5
20200328152535 37 6 21.0 35.0 0.00 0.00 0.00 44 1017.6
20200328152027 37 6 27.0 36.0 0.00 0.00 0.00 43 1017.5
20200328151533 36 6 23.0 36.0 0.00 0.00 0.00 42 1017.5
20200328151041 36 6 25.0 35.0 0.00 0.00 0.00 42 1017.5
20200328150528 36 6 27.0 35.0 0.00 0.00 0.00 42 1017.5
20200328150036 36 6 25.0 34.0 0.00 0.00 0.00 42 1017.3
20200328145543 36 6 26.0 35.0 0.00 0.00 0.00 42 1017.3
20200328145030 36 6 27.0 35.0 0.00 0.00 0.00 42 1017.5
20200328144538 36 6 25.0 32.0 0.00 0.00 0.00 42 1017.6
20200328144027 35 6 22.0 30.0 0.00 0.00 0.00 43 1017.7
20200328143537 35 6 23.0 32.0 0.00 0.00 0.00 44 1017.6
20200328143028 35 6 25.0 33.0 0.00 0.00 0.00 43 1017.6
20200328142533 35 6 27.0 32.0 0.00 0.00 0.00 43 1017.6
20200328142040 35 6 25.0 31.0 0.00 0.00 0.00 43 1017.3
20200328141527 35 6 22.0 27.0 0.00 0.00 0.00 43 1017.4
20200328141034 34 6 21.0 29.0 0.00 0.00 0.00 43 1017.4
20200328140542 34 6 24.0 29.0 0.00 0.00 0.00 43 1017.3
20200328140030 34 6 20.0 25.0 0.00 0.00 0.00 45 1017.4
20200328135537 33 6 20.0 25.0 0.00 0.01 0.00 45 1017.4
20200328135028 33 6 21.0 25.0 0.00 0.01 0.00 46 1017.2
20200328134535 33 6 20.0 25.0 0.00 0.01 0.00 46 1017.1
20200328134043 33 6 18.0 24.0 0.00 0.01 0.00 48 1017.0
20200328133531 32 6 20.0 24.0 0.00 0.01 0.00 48 1017.0
20200328133038 32 6 19.0 24.0 0.00 0.01 0.00 49 1017.0
20200328132525 32 6 19.0 28.0 0.00 0.01 0.00 50 1016.8
20200328132032 31 6 20.0 25.0 0.00 0.01 0.00 52 1016.7
20200328131538 31 6 18.0 24.0 0.00 0.01 0.00 52 1016.7
20200328131025 30 6 18.0 27.0 0.00 0.01 0.00 54 1016.6
20200328130533 30 6 19.0 25.0 0.00 0.01 0.00 54 1016.5
20200328130027 30 6 17.0 24.0 0.00 0.01 0.00 55 1016.6
20200328125533 30 6 20.0 24.0 0.00 0.02 0.00 56 1016.6
20200328125040 30 6 18.0 22.0 0.00 0.02 0.00 59 1016.6
20200328124527 29 6 17.0 19.0 0.00 0.02 0.00 60 1016.7
20200328124035 29 6 17.0 19.0 0.00 0.02 0.00 60 1016.7
20200328123543 29 6 16.0 20.0 0.00 0.02 0.00 60 1016.7
20200328123032 30 6 16.0 19.0 0.00 0.02 0.00 60 1016.7
20200328122546 29 6 16.0 19.0 0.00 0.02 0.00 61 1016.7
20200328122107 29 6 17.0 19.0 0.00 0.02 0.00 63 1016.7
20200328121538 28 6 13.0 14.0 0.00 0.02 0.00 64 1016.6
20200328121025 29 6 12.0 15.0 0.00 0.02 0.00 63 1016.4
20200328120533 29 6 12.0 14.0 0.00 0.02 0.00 63 1016.3
20200328120043 29 6 12.0 14.0 0.00 0.02 0.00 63 1016.4
20200328115528 29 6 11.0 13.0 0.00 0.03 0.00 62 1016.3
20200328115036 29 6 12.0 14.0 0.00 0.03 0.00 61 1016.2
20200328114544 29 6 13.0 14.0 0.00 0.03 0.00 61 1016.1
20200328114031 30 6 12.0 15.0 0.00 0.03 0.00 60 1016.0
20200328113540 30 6 13.0 15.0 0.00 0.03 0.00 60 1015.9
20200328113031 29 6 13.0 15.0 0.00 0.03 0.00 60 1015.9
20200328112537 29 6 12.0 13.0 0.00 0.03 0.00 60 1015.9
20200328112025 30 6 11.0 14.0 0.00 0.03 0.00 59 1015.9
20200328111533 30 6 12.0 14.0 0.00 0.03 0.00 59 1015.8
20200328111040 29 6 12.0 15.0 0.00 0.03 0.00 59 1015.6
20200328110527 30 6 14.0 15.0 0.00 0.03 0.00 59 1015.5
20200328110056 30 6 12.0 17.0 0.00 0.03 0.00 59 1015.6
20200328105542 30 6 11.0 15.0 0.00 0.03 0.00 58 1015.5
20200328105030 30 6 11.0 15.0 0.00 0.03 0.00 58 1015.4
20200328104537 30 6 12.0 15.0 0.00 0.03 0.00 59 1015.4
20200328104028 30 6 12.0 15.0 0.00 0.03 0.00 58 1015.2
20200328103536 30 6 11.0 16.0 0.00 0.03 0.00 57 1015.2
20200328103044 31 6 13.0 18.0 0.00 0.03 0.00 56 1015.1
20200328102530 31 6 13.0 18.0 0.00 0.03 0.00 56 1015.2
20200328102037 31 6 15.0 21.0 0.00 0.03 0.00 55 1015.1
20200328101525 31 6 17.0 21.0 0.00 0.03 0.00 56 1014.8
20200328101033 31 6 15.0 17.0 0.00 0.03 0.00 57 1014.9
20200328100541 30 6 15.0 17.0 0.00 0.03 0.00 58 1014.9
20200328100031 30 6 14.0 19.0 0.00 0.03 0.00 59 1014.9
20200328095542 30 6 13.0 17.0 0.00 0.03 0.00 59 1015.0
20200328095029 30 6 13.0 17.0 0.00 0.03 0.00 59 1014.9
20200328094537 30 6 14.0 18.0 0.00 0.03 0.00 58 1014.9
20200328093532 30 6 15.0 18.0 0.00 0.03 0.00 58 1014.6
20200328092528 30 6 12.0 14.0 0.00 0.03 0.00 59 1014.8
20200328092034 30 6 12.0 13.0 0.00 0.03 0.00 60 1014.9
20200328091542 30 6 10.0 14.0 0.00 0.03 0.00 59 1014.9
20200328091034 30 6 12.0 14.0 0.00 0.03 0.00 59 1014.9
20200328090542 30 6 12.0 15.0 0.00 0.03 0.00 59 1014.7
20200328090032 30 6 13.0 15.0 0.00 0.03 0.00 59 1014.7
20200328085539 30 6 11.0 16.0 0.00 0.03 0.00 58 1014.7
20200328085026 31 6 12.0 16.0 0.00 0.03 0.00 58 1014.7
20200328084533 31 6 11.0 14.0 0.00 0.03 0.00 57 1014.7
20200328084041 31 6 12.0 15.0 0.00 0.03 0.00 58 1014.5
20200328083526 31 6 11.0 16.0 0.00 0.03 0.00 58 1014.7
20200328083035 30 6 9.0 16.0 0.00 0.03 0.00 59 1014.7
20200328082526 31 6 11.0 12.0 0.00 0.03 0.00 58 1014.8
20200328082033 31 6 10.0 12.0 0.00 0.03 0.00 58 1014.7
20200328081540 31 6 10.0 12.0 0.00 0.03 0.00 59 1014.5
20200328081028 31 6 10.0 13.0 0.00 0.03 0.00 58 1014.7
20200328080535 31 6 11.0 14.0 0.00 0.03 0.00 57 1014.7
20200328080045 31 6 11.0 15.0 0.00 0.03 0.00 57 1014.7
20200328075532 31 6 13.0 15.0 0.00 0.03 0.00 56 1014.5
20200328075040 31 6 13.0 16.0 0.00 0.03 0.00 56 1014.5
20200328074530 32 6 13.0 15.0 0.00 0.03 0.00 56 1014.4
20200328074036 32 6 13.0 16.0 0.00 0.03 0.00 55 1014.4
20200328073527 32 6 13.0 16.0 0.00 0.03 0.00 54 1014.3
20200328073037 31 6 12.0 16.0 0.00 0.03 0.00 54 1014.3
20200328072543 31 6 12.0 15.0 0.00 0.03 0.00 55 1014.3
20200328072030 31 6 11.0 14.0 0.00 0.03 0.00 54 1014.3
20200328071537 31 6 12.0 16.0 0.00 0.03 0.00 55 1014.2
20200328071045 31 6 10.0 13.0 0.00 0.03 0.00 55 1014.2
20200328070532 30 6 9.0 10.0 0.00 0.03 0.00 55 1014.3
20200328070042 30 6 8.0 10.0 0.00 0.03 0.00 54 1014.3
20200328065528 30 6 8.0 10.0 0.00 0.03 0.00 54 1014.3